[[{"header":{"parameterUnit":"m.s-1","parameterCategory":2,"la1":30.2991,"la2":30.254,"lo1":-89.0895,"lo2":-89.0444,"dy":0.0017,"dx":0.0017,"nx":28,"ny":28,"refTime":"2025-12-21T09:00:00:Z","depth":"0","parameterNumber":2,"parameterNumberName":"U-component_of_CURRENTS"},"data":[0,0,0,0,0,0,0,0,0,0,0,0,0,0,0,0,0,0,0,0,0,0,0,0,0,0,0,0,0,0,0,0,0,0,0,0,0,0,0,0,0,0,0,0,0,0,0,0,0,0,0,0,0,0,0,0,0,0,-0.3613,-0.3613,0,-0.3604,-0.3604,-0.3603,-0.3583,-0.3583,-0.3583,-0.3583,-0.353,-0.3529,-0.3527,0,0,0,0,0,0,0,0,0,0,0,0,0,-0.3636,-0.3635,-0.3613,-0.3613,-0.3613,-0.3604,-0.3604,-0.3603,-0.3583,-0.3583,-0.3583,-0.3582,-0.353,-0.3529,-0.3527,0,0,0,0,0,0,0,0,0,0,0,0,0,-0.3623,-0.3635,-0.3613,-0.3604,-0.3604,-0.3604,-0.3604,-0.3603,-0.3583,-0.3583,-0.3583,-0.3582,-0.3531,-0.3529,-0.3527,-0.352,0,0,-0.3521,-0.352,0,0,0,0,0,0,0,0,-0.3624,-0.3622,-0.3605,-0.3605,-0.3604,-0.3597,-0.3592,-0.3574,-0.3583,-0.3588,-0.3583,-0.3582,-0.355,-0.3547,-0.3542,-0.3518,-0.3515,-0.3521,-0.352,-0.3519,-0.3519,0,0,0,0,0,0,0,-0.3625,-0.3623,-0.3607,-0.3606,-0.3605,-0.3609,-0.3606,-0.3589,-0.3568,-0.3587,-0.3587,-0.359,-0.3549,-0.3544,-0.3541,-0.3515,-0.3521,-0.3519,-0.3518,-0.3518,-0.352,-0.3521,0,0,0,0,0,0,-0.3631,-0.3623,-0.3607,-0.3607,-0.3617,-0.3609,-0.3606,-0.3597,-0.3569,-0.3565,-0.359,-0.3589,-0.3547,-0.3543,-0.3539,-0.3552,-0.3519,-0.3517,-0.3516,-0.3519,-0.352,-0.3522,0,0,0,0,0,0,-0.3631,-0.3629,-0.3607,-0.3618,-0.3616,-0.3609,-0.3599,-0.3597,-0.3592,-0.3572,-0.3567,-0.3588,-0.3547,-0.3541,-0.3535,-0.3549,-0.3517,-0.3515,-0.3518,-0.3519,-0.3521,-0.3564,0,0,0,0,0,0,-0.3631,-0.3628,-0.3616,-0.3618,-0.3615,-0.3611,-0.36,-0.3597,-0.3596,-0.3594,-0.3568,-0.3563,-0.3546,-0.3538,-0.3533,-0.3546,-0.3513,-0.3516,-0.3518,-0.3521,-0.3562,-0.3568,-0.3573,0,0,0,0,0,-0.3632,-0.3612,-0.3615,-0.3613,-0.3601,-0.3612,-0.3611,-0.3604,-0.3596,-0.3597,-0.3586,-0.3564,-0.3549,-0.3538,-0.3532,-0.3544,-0.3515,-0.3518,-0.352,-0.3559,-0.3566,-0.3573,0,0,0,0,0,0,-0.3602,-0.3609,-0.3612,-0.3591,-0.3607,-0.361,-0.36,-0.3606,-0.3597,-0.359,-0.3572,-0.3567,-0.357,-0.3553,-0.3541,-0.3555,-0.3531,-0.3533,-0.3563,-0.3569,-0.3575,-0.3574,-0.3512,0,0,0,0,0,-0.3595,-0.3583,-0.3603,-0.3583,-0.3592,-0.3599,-0.3599,-0.3604,-0.3602,-0.3597,-0.3585,-0.3575,-0.3577,-0.3569,-0.3563,-0.3562,-0.354,-0.357,-0.3576,-0.358,-0.3578,-0.3578,-0.3583,-0.3531,-0.3531,-0.3531,0,0,-0.357,-0.3577,-0.3565,-0.3577,-0.3581,-0.3602,-0.3597,-0.36,-0.3618,-0.3592,-0.3596,-0.3591,-0.3582,-0.3589,-0.3589,-0.3575,-0.3581,-0.3584,-0.3588,-0.3583,-0.3581,-0.3586,-0.359,-0.3532,-0.3532,-0.3532,0,0,-0.3536,-0.3532,-0.3524,-0.3547,-0.357,-0.3587,-0.3594,-0.3609,-0.3615,-0.3626,-0.3621,-0.3627,-0.3615,-0.3621,-0.3622,-0.3653,-0.3613,-0.3651,-0.3673,-0.3673,-0.3677,-0.368,-0.3642,-0.3642,-0.3652,-0.3652,-0.3652,0,-0.3508,-0.3509,-0.3523,-0.3542,-0.3563,-0.3586,-0.3606,-0.362,-0.3632,-0.3646,-0.3631,-0.3645,-0.3634,-0.366,-0.3671,-0.3665,-0.3643,-0.3646,-0.3679,-0.3682,-0.3684,-0.3645,-0.3644,-0.3654,-0.3654,-0.3653,-0.3653,0,-0.3486,-0.3497,-0.3496,-0.3534,-0.3561,-0.3575,-0.3621,-0.3641,-0.3653,-0.3671,-0.3696,-0.3689,-0.3698,-0.3703,-0.3691,-0.3714,-0.3684,-0.3687,-0.3659,-0.3692,-0.3648,-0.3646,-0.3657,-0.3657,-0.3656,-0.3655,0,0,-0.3383,-0.3466,-0.3463,-0.3498,-0.3563,-0.3581,-0.3628,-0.3677,-0.3706,-0.3718,-0.3748,-0.3758,-0.3755,-0.3756,-0.3751,-0.375,-0.3742,-0.3723,-0.3722,-0.3678,-0.371,-0.3591,-0.3577,-0.375,-0.375,-0.375,-0.3666,0,-0.3359,-0.3404,-0.3454,-0.3498,-0.3531,-0.3595,-0.3641,-0.3692,-0.3727,-0.3761,-0.3775,-0.3793,-0.3778,-0.3779,-0.378,-0.3764,-0.3742,-0.3763,-0.369,-0.3687,-0.3573,-0.3573,-0.3433,-0.3338,-0.3664,-0.3663,-0.3663,0,-0.3314,-0.3361,-0.3407,-0.3509,-0.3527,-0.3561,-0.3647,-0.3691,-0.3762,-0.3788,-0.3819,-0.3828,-0.3843,-0.3817,-0.3793,-0.3806,-0.3753,-0.3728,-0.3725,-0.3596,-0.3565,-0.3362,-0.3321,-0.3292,-0.366,-0.366,-0.366,0,-0.3235,-0.3321,-0.3362,-0.3393,-0.3509,-0.3542,-0.3599,-0.3687,-0.3728,-0.3797,-0.382,-0.3853,-0.3844,-0.3826,-0.377,-0.3783,-0.372,-0.3735,-0.357,-0.356,-0.3416,-0.3392,-0.3331,-0.3692,-0.3692,-0.3692,-0.3692,0,-0.3188,-0.3211,-0.3327,-0.3347,-0.3393,-0.3496,-0.3548,-0.3614,-0.3706,-0.3742,-0.3813,-0.3826,-0.3843,-0.3814,-0.3775,-0.3652,-0.3718,-0.3559,-0.3532,-0.3425,-0.3404,-0.3351,-0.3383,-0.3689,-0.369,-0.369,-0.3691,0,-0.3078,-0.3161,-0.3204,-0.3322,-0.3354,-0.3379,-0.35,-0.354,-0.3643,-0.369,-0.3708,-0.3787,-0.3747,-0.3733,-0.3682,-0.362,-0.3473,-0.3475,-0.3325,-0.3281,-0.31,-0.3139,-0.3038,-0.2955,-0.329,-0.3286,-0.3283,0,-0.3023,-0.3036,-0.3144,-0.3165,-0.321,-0.3276,-0.3324,-0.3469,-0.3521,-0.3649,-0.3655,-0.366,-0.3608,-0.35,-0.3415,-0.33,-0.3309,-0.3102,-0.3103,-0.3052,-0.3078,-0.3114,-0.3055,-0.2926,-0.292,-0.2916,-0.2912,0,-0.2896,-0.2933,-0.297,-0.3023,-0.3069,-0.3125,-0.3209,-0.3247,-0.3408,-0.3446,-0.3471,-0.3442,-0.3365,-0.3193,-0.3065,-0.2992,-0.3027,-0.3001,-0.3001,-0.282,-0.2804,-0.2722,-0.3011,-0.2871,-0.2875,-0.2878,-0.288,-0.2882,-0.2767,-0.2763,-0.2815,-0.2846,-0.2899,-0.2929,-0.2921,-0.3027,-0.3061,-0.3087,-0.3199,-0.3109,-0.3036,-0.2833,-0.2758,-0.2598,-0.2696,-0.2531,-0.2589,-0.2635,-0.2533,-0.2706,-0.2511,-0.2513,-0.2515,-0.2516,-0.2517,0,-0.2595,-0.2616,-0.2637,-0.2668,-0.2647,-0.2742,-0.2802,-0.2766,-0.2731,-0.2794,-0.277,-0.2703,-0.2524,-0.2487,-0.2351,-0.2237,-0.2206,-0.2197,-0.2239,-0.2203,-0.238,-0.2341,-0.2036,-0.2036,-0.2036,-0.2036,-0.2036,-0.2037,-0.2502,-0.2461,-0.2483,-0.2394,-0.241,-0.2335,-0.2324,-0.23,-0.2312,-0.2231,-0.2225,-0.2269,-0.226,-0.2373,-0.2203,-0.2091,-0.2061,-0.1983,-0.2036,-0.22,-0.2238,-0.2274,-0.2243,-0.1923,-0.1923,-0.1772,-0.1771,-0.1771]},{"header":{"parameterUnit":"m.s-1","parameterCategory":2,"la1":30.2991,"la2":30.254,"lo1":-89.0895,"lo2":-89.0444,"dy":0.0017,"dx":0.0017,"nx":28,"ny":28,"refTime":"2025-12-21T09:00:00:Z","depth":"0","parameterNumber":3,"parameterNumberName":"V-component_of_CURRENTS"},"data":[0,0,0,0,0,0,0,0,0,0,0,0,0,0,0,0,0,0,0,0,0,0,0,0,0,0,0,0,0,0,0,0,0,0,0,0,0,0,0,0,0,0,0,0,0,0,0,0,0,0,0,0,0,0,0,0,0,0,-0.0278,-0.0277,0,-0.0144,-0.0143,-0.0141,-0.0052,-0.0051,-0.0051,-0.0051,0.0124,0.0128,0.0133,0,0,0,0,0,0,0,0,0,0,0,0,0,-0.0392,-0.039,-0.0278,-0.0276,-0.0275,-0.0145,-0.0143,-0.0141,-0.0052,-0.0051,-0.0051,-0.005,0.0123,0.0128,0.0133,0,0,0,0,0,0,0,0,0,0,0,0,0,-0.0307,-0.039,-0.0278,-0.0216,-0.021,-0.0145,-0.0143,-0.014,-0.0052,-0.0051,-0.0051,-0.005,0.0121,0.0127,0.0134,0.016,0,0,0.0153,0.0156,0,0,0,0,0,0,0,0,-0.0312,-0.0303,-0.0227,-0.0221,-0.0213,-0.0116,-0.0119,-0.0038,-0.0052,-0.011,-0.0051,-0.005,0.0046,0.0059,0.0084,0.0168,0.0176,0.0154,0.0158,0.016,0.0162,0,0,0,0,0,0,0,-0.0318,-0.0308,-0.0223,-0.0226,-0.0217,-0.0173,-0.0161,-0.0103,-0.0035,-0.0105,-0.0099,-0.0087,0.0051,0.0078,0.0089,0.0178,0.0154,0.0159,0.0163,0.0166,0.0309,0.0309,0,0,0,0,0,0,-0.0342,-0.0314,-0.0227,-0.0219,-0.0264,-0.0172,-0.0158,-0.0146,-0.0036,-0.002,-0.0088,-0.0083,0.0067,0.0082,0.0096,0.0136,0.016,0.0166,0.017,0.0309,0.0309,0.0309,0,0,0,0,0,0,-0.0345,-0.0336,-0.0233,-0.0265,-0.0249,-0.0172,-0.0158,-0.0144,-0.0116,-0.0024,-0.0006,-0.0075,0.0068,0.0087,0.0146,0.0143,0.0169,0.0175,0.0309,0.0309,0.0309,0.0214,0,0,0,0,0,0,-0.0349,-0.0338,-0.034,-0.0267,-0.0248,-0.0205,-0.0159,-0.0142,-0.0111,-0.0104,-0.0008,0.001,0.007,0.0136,0.0152,0.0152,0.018,0.0309,0.0309,0.0309,0.0217,0.0211,0.0205,0,0,0,0,0,-0.0354,-0.0361,-0.0341,-0.0331,-0.0253,-0.0205,-0.0192,-0.0133,-0.0112,-0.0105,-0.0037,0.0007,0.0148,0.0141,0.016,0.0162,0.0309,0.0309,0.0309,0.022,0.0212,0.0205,0,0,0,0,0,0,-0.0412,-0.0351,-0.0327,-0.0316,-0.027,-0.0191,-0.0182,-0.0142,-0.0084,-0.0078,0.0009,0.0031,0.0081,0.0134,0.0124,0.0204,0.0235,0.0238,0.016,0.0154,0.0148,0.0122,0.0185,0,0,0,0,0,-0.0429,-0.0418,-0.0352,-0.0346,-0.0327,-0.0258,-0.0232,-0.0193,-0.0132,-0.0105,-0.0038,0.0033,0.0096,0.0132,0.0193,0.0237,0.0302,0.0251,0.0245,0.0239,0.0232,0.0326,0.0328,0.0309,0.0309,0.0309,0,0,-0.0451,-0.0416,-0.0411,-0.0358,-0.0318,-0.0301,-0.024,-0.021,-0.0191,-0.0096,-0.0053,0.0013,0.0102,0.0151,0.0178,0.0196,0.0279,0.0239,0.0234,0.0229,0.0327,0.0329,0.033,0.0309,0.0309,0.0309,0,0,-0.0495,-0.046,-0.0467,-0.0435,-0.0384,-0.0339,-0.0337,-0.0264,-0.0226,-0.0178,-0.0106,-0.0041,0.0049,0.0117,0.0162,0.0161,0.0241,0.0175,0.0131,0.0222,0.0224,0.0227,0.031,0.0321,0.0176,0.0176,0.0176,0,-0.0526,-0.0522,-0.0463,-0.0461,-0.0444,-0.0365,-0.037,-0.0319,-0.0236,-0.0203,-0.018,-0.0034,0.0036,0.0112,0.0108,0.0148,0.0207,0.0148,0.0214,0.0218,0.0222,0.0307,0.0321,0.0171,0.0172,0.0172,0.0173,0,-0.0568,-0.0568,-0.0571,-0.0541,-0.0515,-0.0507,-0.0435,-0.04,-0.0349,-0.0288,-0.0208,-0.0106,-0.0015,0.0013,0.0059,0.0124,0.0158,0.0191,0.0227,0.0218,0.0309,0.0324,0.0165,0.0166,0.0168,0.0169,0,0,-0.063,-0.0608,-0.0609,-0.0617,-0.0559,-0.0544,-0.0511,-0.0451,-0.0422,-0.0336,-0.0283,-0.0179,-0.0114,-0.0059,0.0018,0.0088,0.017,0.0137,0.0145,0.021,0.0367,0.0406,0.0427,0.0212,0.0214,0.0216,0.0417,0,-0.0683,-0.0716,-0.0676,-0.0702,-0.0714,-0.0636,-0.0612,-0.0545,-0.0467,-0.0394,-0.0273,-0.02,-0.0141,-0.01,-0.0016,0.013,0.0206,0.0112,0.0374,0.0382,0.041,0.0445,0.0481,0.0664,0.0433,0.0435,0.0437,0,-0.0735,-0.0752,-0.0794,-0.0788,-0.0784,-0.0779,-0.0721,-0.0686,-0.0558,-0.0494,-0.0386,-0.0283,-0.0153,-0.0113,0.0134,0.007,0.0201,0.0307,0.0319,0.0397,0.045,0.0638,0.0702,0.088,0.0462,0.046,0.0458,0,-0.0816,-0.0831,-0.0874,-0.0872,-0.0847,-0.0843,-0.082,-0.0719,-0.0683,-0.0552,-0.0498,-0.0325,-0.0228,-0.0045,0.0183,0.0162,0.0453,0.0466,0.0625,0.063,0.0734,0.0744,0.0994,0.0627,0.0626,0.0626,0.0625,0,-0.0889,-0.092,-0.0919,-0.0944,-0.0984,-0.0929,-0.0931,-0.0872,-0.0773,-0.072,-0.0559,-0.0463,-0.021,-0.0007,0.0184,0.0467,0.0472,0.0628,0.069,0.0702,0.0706,0.0923,0.0983,0.0633,0.0632,0.063,0.0629,0,-0.0968,-0.0967,-0.102,-0.1024,-0.1028,-0.1055,-0.1026,-0.1012,-0.0906,-0.0826,-0.0789,-0.055,-0.0276,-0.0009,0.0314,0.0475,0.0853,0.0822,0.0811,0.0867,0.115,0.1201,0.1507,0.1615,0.103,0.1032,0.1034,0,-0.1011,-0.1048,-0.1095,-0.1135,-0.1141,-0.1165,-0.1175,-0.1095,-0.1063,-0.0865,-0.0825,-0.0554,-0.0325,0.0171,0.0496,0.0858,0.0986,0.1077,0.1037,0.1186,0.129,0.1322,0.1392,0.1148,0.1151,0.1153,0.1155,0,-0.109,-0.1105,-0.1149,-0.124,-0.1277,-0.1308,-0.1305,-0.1301,-0.1176,-0.1057,-0.0843,-0.0643,-0.0161,0.0276,0.0721,0.0935,0.1206,0.113,0.1312,0.1424,0.1453,0.1579,0.0985,0.1174,0.1172,0.1171,0.117,0.1169,-0.1135,-0.1194,-0.1257,-0.1335,-0.1385,-0.1422,-0.1429,-0.1374,-0.1288,-0.1069,-0.0876,-0.0512,0.0075,0.0725,0.0965,0.1443,0.1394,0.1577,0.1635,0.1661,0.174,0.1172,0.1403,0.1403,0.1402,0.1402,0.1401,0,-0.1188,-0.1254,-0.1345,-0.1428,-0.149,-0.149,-0.1486,-0.1427,-0.1298,-0.105,-0.0787,-0.0107,0.0479,0.101,0.1671,0.193,0.1986,0.2061,0.2131,0.2184,0.1727,0.1705,0.198,0.1979,0.1979,0.1979,0.1979,0.1979,-0.1217,-0.1314,-0.1366,-0.1485,-0.1539,-0.1566,-0.1551,-0.1404,-0.1212,-0.0755,-0.035,-0.0031,0.0704,0.1738,0.234,0.2403,0.2619,0.2606,0.272,0.2406,0.2364,0.2325,0.2322,0.2722,0.2723,0.3164,0.3168,0.3171]}],[{"header":{"parameterUnit":"m.s-1","parameterCategory":2,"la1":30.2991,"la2":30.254,"lo1":-89.0895,"lo2":-89.0444,"dy":0.0017,"dx":0.0017,"nx":28,"ny":28,"refTime":"2025-12-21T09:00:00:Z","depth":"2","parameterNumber":2,"parameterNumberName":"U-component_of_CURRENTS"},"data":[0,0,0,0,0,0,0,0,0,0,0,0,0,0,0,0,0,0,0,0,0,0,0,0,0,0,0,0,0,0,0,0,0,0,0,0,0,0,0,0,0,0,0,0,0,0,0,0,0,0,0,0,0,0,0,0,0,0,-0.3066,-0.3067,0,-0.3091,-0.3091,-0.3091,-0.308,-0.308,-0.308,-0.3079,-0.3052,-0.3052,-0.3051,0,0,0,0,0,0,0,0,0,0,0,0,0,-0.2962,-0.2964,-0.3066,-0.3067,-0.3067,-0.3091,-0.3091,-0.3091,-0.308,-0.308,-0.3079,-0.3079,-0.3052,-0.3052,-0.3051,0,0,0,0,0,0,0,0,0,0,0,0,0,-0.2996,-0.2965,-0.3066,-0.3067,-0.3068,-0.3091,-0.3091,-0.3091,-0.308,-0.308,-0.3079,-0.3079,-0.3053,-0.3052,-0.3051,-0.3057,0,0,-0.3049,-0.3049,0,0,0,0,0,0,0,0,-0.2994,-0.2999,-0.3066,-0.3067,-0.3068,-0.3085,-0.3045,-0.3078,-0.308,-0.3072,-0.3079,-0.3079,-0.3061,-0.306,-0.3061,-0.3055,-0.3054,-0.3049,-0.3049,-0.3049,-0.3048,0,0,0,0,0,0,0,-0.2992,-0.2998,-0.3073,-0.3067,-0.3068,-0.3051,-0.3055,-0.3051,-0.3065,-0.3073,-0.3073,-0.3081,-0.306,-0.3062,-0.306,-0.3054,-0.3049,-0.3049,-0.3048,-0.3048,-0.3081,-0.3082,0,0,0,0,0,0,-0.2999,-0.2996,-0.3072,-0.3074,-0.3033,-0.3053,-0.3058,-0.3077,-0.3066,-0.3066,-0.3081,-0.3081,-0.3063,-0.3061,-0.3059,-0.3089,-0.3049,-0.3048,-0.3048,-0.308,-0.3081,-0.3083,0,0,0,0,0,0,-0.2997,-0.3006,-0.3071,-0.3037,-0.3045,-0.3056,-0.3078,-0.3078,-0.3085,-0.3074,-0.3072,-0.3089,-0.3063,-0.306,-0.3069,-0.3087,-0.3048,-0.3047,-0.3078,-0.308,-0.3082,-0.3133,0,0,0,0,0,0,-0.2994,-0.3005,-0.3018,-0.3038,-0.3047,-0.3091,-0.3078,-0.3079,-0.3093,-0.3092,-0.308,-0.3077,-0.3062,-0.307,-0.3068,-0.3085,-0.3047,-0.3077,-0.3079,-0.3081,-0.313,-0.3137,-0.3142,0,0,0,0,0,-0.299,-0.3007,-0.3019,-0.3027,-0.3066,-0.3092,-0.3095,-0.3098,-0.3094,-0.3101,-0.3098,-0.3077,-0.3084,-0.3071,-0.3068,-0.3086,-0.3075,-0.3078,-0.3081,-0.3127,-0.3135,-0.3142,0,0,0,0,0,0,-0.2967,-0.3009,-0.3021,-0.3051,-0.3075,-0.3092,-0.3097,-0.3105,-0.3109,-0.3106,-0.3092,-0.3089,-0.3104,-0.3091,-0.3077,-0.3104,-0.3077,-0.3079,-0.3113,-0.312,-0.3126,-0.312,-0.3046,0,0,0,0,0,-0.2971,-0.2992,-0.3032,-0.3052,-0.3067,-0.3085,-0.3095,-0.3104,-0.3113,-0.3115,-0.3111,-0.3108,-0.3114,-0.3114,-0.3113,-0.3126,-0.3101,-0.3137,-0.3143,-0.3148,-0.3143,-0.314,-0.3145,-0.3092,-0.3092,-0.3092,0,0,-0.2965,-0.2992,-0.3003,-0.3048,-0.3063,-0.3091,-0.3089,-0.311,-0.3132,-0.3111,-0.3129,-0.3129,-0.3124,-0.3141,-0.3146,-0.3131,-0.315,-0.3152,-0.3156,-0.3148,-0.3144,-0.3148,-0.3153,-0.3094,-0.3093,-0.3093,0,0,-0.2959,-0.2992,-0.3007,-0.3036,-0.3072,-0.3092,-0.3103,-0.3132,-0.3143,-0.3167,-0.3161,-0.3174,-0.3177,-0.3182,-0.3184,-0.3225,-0.3185,-0.3226,-0.3248,-0.3247,-0.325,-0.3254,-0.322,-0.322,-0.3227,-0.3227,-0.3227,0,-0.295,-0.2983,-0.3014,-0.3041,-0.3066,-0.3096,-0.3123,-0.3145,-0.3172,-0.3186,-0.3178,-0.3203,-0.3198,-0.3225,-0.3239,-0.3238,-0.3217,-0.322,-0.3253,-0.3256,-0.3258,-0.3223,-0.3222,-0.323,-0.3229,-0.3229,-0.3229,0,-0.2956,-0.299,-0.3002,-0.3051,-0.3084,-0.311,-0.3157,-0.3184,-0.3203,-0.3223,-0.3255,-0.3256,-0.3268,-0.3276,-0.3267,-0.3291,-0.3262,-0.3263,-0.3231,-0.3267,-0.3227,-0.3225,-0.3234,-0.3233,-0.3232,-0.3231,0,0,-0.2904,-0.2991,-0.2991,-0.3024,-0.3095,-0.3119,-0.3171,-0.3222,-0.3251,-0.3277,-0.3307,-0.3327,-0.3327,-0.3329,-0.3326,-0.3325,-0.3322,-0.3299,-0.3298,-0.3259,-0.3291,-0.3185,-0.3172,-0.3327,-0.3328,-0.3328,-0.3253,0,-0.2895,-0.2947,-0.2997,-0.3048,-0.3083,-0.3145,-0.3191,-0.3243,-0.3281,-0.3317,-0.3335,-0.3358,-0.3349,-0.3354,-0.3356,-0.3338,-0.3321,-0.334,-0.3268,-0.3265,-0.3162,-0.3169,-0.294,-0.2846,-0.3251,-0.325,-0.325,0,-0.287,-0.2916,-0.2968,-0.3061,-0.3081,-0.3118,-0.3198,-0.3244,-0.3314,-0.3342,-0.3376,-0.3389,-0.3405,-0.3386,-0.3364,-0.3375,-0.3331,-0.3307,-0.3304,-0.3183,-0.3155,-0.2879,-0.2827,-0.3246,-0.3246,-0.3247,-0.3247,0,-0.2802,-0.2889,-0.293,-0.2962,-0.3071,-0.3105,-0.316,-0.3242,-0.328,-0.3351,-0.3374,-0.3409,-0.3406,-0.3388,-0.3341,-0.3354,-0.3292,-0.3306,-0.3163,-0.3155,-0.2932,-0.2903,-0.3269,-0.327,-0.327,-0.327,-0.327,0,-0.2766,-0.2793,-0.2902,-0.2923,-0.2968,-0.3065,-0.3115,-0.3178,-0.3262,-0.3292,-0.3369,-0.3379,-0.3405,-0.3378,-0.3342,-0.3232,-0.329,-0.3153,-0.3129,-0.2942,-0.2917,-0.3247,-0.3246,-0.3267,-0.3268,-0.3268,-0.3269,0,-0.267,-0.2749,-0.2793,-0.2904,-0.2935,-0.2961,-0.307,-0.3104,-0.3203,-0.3243,-0.3262,-0.3342,-0.331,-0.3304,-0.3258,-0.3204,-0.3135,-0.3074,-0.2837,-0.2786,-0.2998,-0.3,-0.2919,-0.2915,-0.2911,-0.2908,-0.2906,0,-0.2623,-0.2638,-0.2741,-0.276,-0.2804,-0.2867,-0.2907,-0.304,-0.308,-0.3199,-0.3198,-0.3216,-0.3166,-0.3074,-0.2997,-0.2895,-0.3003,-0.2632,-0.2622,-0.2978,-0.2963,-0.2971,-0.2978,-0.2342,-0.2335,-0.2329,-0.2325,0,-0.2513,-0.2549,-0.2585,-0.2629,-0.267,-0.2716,-0.2789,-0.2812,-0.2956,-0.2984,-0.2999,-0.2973,-0.2917,-0.2716,-0.2614,-0.2536,-0.2642,-0.2512,-0.293,-0.2477,-0.243,-0.2417,-0.2443,-0.2274,-0.2279,-0.2283,-0.2285,-0.2287,-0.2402,-0.2398,-0.2444,-0.2466,-0.2511,-0.2523,-0.2499,-0.2583,-0.2595,-0.2594,-0.271,-0.2595,-0.2587,-0.2304,-0.2192,-0.2121,-0.2303,-0.2208,-0.2227,-0.2252,-0.2209,-0.216,-0.1943,-0.1945,-0.1948,-0.195,-0.1953,0,-0.2251,-0.2265,-0.2278,-0.2296,-0.2266,-0.2353,-0.2378,-0.2312,-0.2245,-0.2285,-0.2252,-0.2005,-0.1876,-0.1886,-0.1694,-0.1662,-0.166,-0.16,-0.16,-0.165,-0.1695,-0.1627,-0.1204,-0.1202,-0.12,-0.1198,0,0,-0.2169,-0.2124,-0.2132,-0.2031,-0.204,-0.1936,-0.1903,-0.1824,-0.1801,-0.1663,-0.1609,-0.175,-0.1801,-0.1499,-0.1434,-0.1288,-0.1453,-0.122,-0.1816,-0.1863,-0.1905,-0.2034,-0.1983,0,0,0,0,0]},{"header":{"parameterUnit":"m.s-1","parameterCategory":2,"la1":30.2991,"la2":30.254,"lo1":-89.0895,"lo2":-89.0444,"dy":0.0017,"dx":0.0017,"nx":28,"ny":28,"refTime":"2025-12-21T09:00:00:Z","depth":"2","parameterNumber":3,"parameterNumberName":"V-component_of_CURRENTS"},"data":[0,0,0,0,0,0,0,0,0,0,0,0,0,0,0,0,0,0,0,0,0,0,0,0,0,0,0,0,0,0,0,0,0,0,0,0,0,0,0,0,0,0,0,0,0,0,0,0,0,0,0,0,0,0,0,0,0,0,-0.0315,-0.0314,0,-0.0196,-0.0195,-0.0193,-0.0116,-0.0116,-0.0116,-0.0115,0.0045,0.0048,0.0052,0,0,0,0,0,0,0,0,0,0,0,0,0,-0.0416,-0.0415,-0.0315,-0.0314,-0.0313,-0.0196,-0.0195,-0.0193,-0.0116,-0.0116,-0.0116,-0.0115,0.0043,0.0048,0.0053,0,0,0,0,0,0,0,0,0,0,0,0,0,-0.0341,-0.0414,-0.0316,-0.0262,-0.0256,-0.0197,-0.0195,-0.0192,-0.0116,-0.0116,-0.0115,-0.0115,0.0042,0.0048,0.0053,0.0081,0,0,0.0072,0.0074,0,0,0,0,0,0,0,0,-0.0345,-0.0337,-0.0271,-0.0265,-0.0259,-0.0172,-0.0171,-0.01,-0.0117,-0.0168,-0.0115,-0.0115,-0.0026,-0.0014,0.0009,0.0088,0.0095,0.0072,0.0076,0.0078,0.008,0,0,0,0,0,0,0,-0.035,-0.0341,-0.0266,-0.027,-0.0262,-0.0223,-0.0212,-0.0157,-0.0099,-0.0163,-0.0158,-0.0147,-0.0022,0.0003,0.0014,0.0098,0.0072,0.0077,0.0081,0.0083,0.0219,0.0219,0,0,0,0,0,0,-0.0372,-0.0346,-0.027,-0.0263,-0.0304,-0.0222,-0.021,-0.0199,-0.01,-0.0085,-0.0148,-0.0144,-0.0007,0.0007,0.002,0.0059,0.0078,0.0084,0.0087,0.0219,0.0219,0.0219,0,0,0,0,0,0,-0.0375,-0.0367,-0.0275,-0.0303,-0.0289,-0.0221,-0.021,-0.0197,-0.0172,-0.0089,-0.0073,-0.0136,-0.0006,0.0011,0.0067,0.0065,0.0087,0.0092,0.0219,0.0219,0.0219,0.0136,0,0,0,0,0,0,-0.0378,-0.0368,-0.037,-0.0305,-0.0288,-0.0248,-0.021,-0.0195,-0.0167,-0.0161,-0.0074,-0.0058,-0.0004,0.0058,0.0073,0.0074,0.0097,0.0219,0.0219,0.0219,0.0139,0.0134,0.0129,0,0,0,0,0,-0.0382,-0.0387,-0.0371,-0.0362,-0.0293,-0.0249,-0.0237,-0.0185,-0.0167,-0.016,-0.01,-0.0061,0.0069,0.0063,0.0081,0.0083,0.0219,0.0219,0.0219,0.0141,0.0135,0.0129,0,0,0,0,0,0,-0.0431,-0.0378,-0.0359,-0.0348,-0.0307,-0.0237,-0.0227,-0.0193,-0.0139,-0.0134,-0.0057,-0.0037,0.001,0.0058,0.0049,0.0123,0.0149,0.0153,0.0084,0.0079,0.0074,0.0051,0.0102,0,0,0,0,0,-0.0445,-0.0436,-0.0378,-0.0372,-0.0355,-0.0294,-0.0271,-0.0237,-0.0181,-0.0157,-0.0096,-0.0032,0.0024,0.0059,0.0114,0.0157,0.0209,0.017,0.0165,0.016,0.0154,0.0229,0.023,0.022,0.022,0.022,0,0,-0.0464,-0.0434,-0.0429,-0.0382,-0.0346,-0.033,-0.0278,-0.025,-0.0232,-0.0148,-0.0108,-0.0049,0.003,0.0077,0.0102,0.0118,0.0191,0.016,0.0155,0.0152,0.0229,0.023,0.0231,0.022,0.022,0.022,0,0,-0.0499,-0.047,-0.0474,-0.0445,-0.04,-0.0361,-0.0359,-0.0293,-0.0261,-0.0216,-0.0153,-0.0094,-0.0011,0.0049,0.009,0.0091,0.0158,0.0105,0.0069,0.014,0.0142,0.0144,0.0211,0.022,0.0107,0.0107,0.0107,0,-0.0524,-0.052,-0.0469,-0.0466,-0.0451,-0.0383,-0.0386,-0.0341,-0.0266,-0.0239,-0.0217,-0.0086,-0.0022,0.0046,0.0044,0.008,0.0127,0.0082,0.0133,0.0136,0.0139,0.0208,0.0219,0.0103,0.0103,0.0104,0.0104,0,-0.0557,-0.0557,-0.0558,-0.0532,-0.0509,-0.0501,-0.0439,-0.0408,-0.0364,-0.0312,-0.0241,-0.0148,-0.0069,-0.0041,0.0003,0.0057,0.0086,0.0112,0.0143,0.0135,0.0209,0.0221,0.0097,0.0099,0.01,0.0101,0,0,-0.0608,-0.0588,-0.0589,-0.0598,-0.0546,-0.0534,-0.0504,-0.0455,-0.0435,-0.0353,-0.0313,-0.0213,-0.0157,-0.0108,-0.0037,0.0025,0.009,0.0067,0.0073,0.0125,0.0246,0.0269,0.0286,0.0122,0.0123,0.0125,0.0288,0,-0.0653,-0.0679,-0.0645,-0.0668,-0.0679,-0.0614,-0.0594,-0.0538,-0.0474,-0.0415,-0.0306,-0.0242,-0.0182,-0.0146,-0.0073,0.0051,0.0118,0.0043,0.0255,0.0261,0.0275,0.0299,0.0255,0.0397,0.03,0.0302,0.0304,0,-0.0695,-0.071,-0.0747,-0.0747,-0.0744,-0.0741,-0.0699,-0.067,-0.0565,-0.0513,-0.042,-0.0329,-0.0213,-0.017,0.0039,-0.0013,0.0102,0.0197,0.0206,0.0264,0.0307,0.0392,0.0424,0.0325,0.0324,0.0322,0.0321,0,-0.0766,-0.078,-0.0819,-0.0818,-0.08,-0.08,-0.0783,-0.0703,-0.0678,-0.057,-0.053,-0.0379,-0.0295,-0.0135,0.0067,0.0053,0.0295,0.031,0.0444,0.0448,0.0471,0.0473,0.045,0.045,0.045,0.0449,0.0449,0,-0.0828,-0.0858,-0.0859,-0.0882,-0.0924,-0.0878,-0.089,-0.0843,-0.0766,-0.0733,-0.0589,-0.0515,-0.0285,-0.0114,0.0057,0.0296,0.03,0.0445,0.0494,0.0441,0.0439,0.0422,0.0416,0.0455,0.0454,0.0453,0.0452,0,-0.0897,-0.0897,-0.0947,-0.0955,-0.0962,-0.0991,-0.0978,-0.0975,-0.0891,-0.0838,-0.0806,-0.0605,-0.0376,-0.0136,0.0145,0.0287,0.0507,0.0588,0.0508,0.0544,0.0612,0.06,0.0752,0.0755,0.0757,0.0758,0.0759,0,-0.0934,-0.0968,-0.1016,-0.1055,-0.1064,-0.1094,-0.111,-0.1049,-0.1032,-0.0885,-0.0858,-0.0631,-0.0447,-0.0023,0.0263,0.0578,0.058,0.0706,0.0673,0.0611,0.0645,0.063,0.0616,0.0679,0.068,0.068,0.0681,0,-0.1004,-0.102,-0.1062,-0.115,-0.1191,-0.1229,-0.1237,-0.1243,-0.115,-0.1064,-0.0905,-0.0745,-0.0342,0.0002,0.0394,0.057,0.0649,0.0725,0.071,0.0595,0.0552,0.0581,0.0568,0.0685,0.0684,0.0684,0.0684,0.0684,-0.1047,-0.1101,-0.116,-0.1237,-0.1292,-0.1338,-0.1354,-0.1321,-0.1267,-0.1105,-0.0954,-0.0665,-0.0358,0.0214,0.0482,0.0735,0.0731,0.0792,0.0786,0.0782,0.073,0.0691,0.0841,0.0841,0.0841,0.0842,0.0842,0,-0.1099,-0.1158,-0.1243,-0.1327,-0.1392,-0.1398,-0.1413,-0.1375,-0.1288,-0.1102,-0.0901,-0.0525,-0.014,0.0194,0.059,0.0813,0.0792,0.0848,0.077,0.0765,0.0761,0.0704,0.0811,0.0811,0.0812,0.0812,0,0,-0.1128,-0.1216,-0.1262,-0.1381,-0.1439,-0.1479,-0.1478,-0.1379,-0.1233,-0.102,-0.0793,-0.0513,-0.0117,0.0153,0.043,0.0636,0.0642,0.0655,0.0656,0.0526,0.0518,0.0704,0.0609,0,0,0,0,0]}],[{"header":{"parameterUnit":"m.s-1","parameterCategory":2,"la1":30.2991,"la2":30.254,"lo1":-89.0895,"lo2":-89.0444,"dy":0.0017,"dx":0.0017,"nx":28,"ny":28,"refTime":"2025-12-21T09:00:00:Z","depth":"4","parameterNumber":2,"parameterNumberName":"U-component_of_CURRENTS"},"data":[0,0,0,0,0,0,0,0,0,0,0,0,0,0,0,0,0,0,0,0,0,0,0,0,0,0,0,0,0,0,0,0,0,0,0,0,0,0,0,0,0,0,0,0,0,0,0,0,0,0,0,0,0,0,0,0,0,0,-0.2101,-0.2102,0,-0.2185,-0.2186,-0.2187,-0.2243,-0.2243,-0.2244,-0.2244,-0.2312,-0.2313,-0.2315,0,0,0,0,0,0,0,0,0,0,0,0,0,-0.1953,-0.1955,-0.2101,-0.2102,-0.2103,-0.2185,-0.2186,-0.2187,-0.2242,-0.2243,-0.2244,-0.2245,-0.2312,-0.2313,-0.2315,0,0,0,0,0,0,0,0,0,0,0,0,0,-0.2022,-0.1956,-0.2101,-0.2143,-0.2148,-0.2185,-0.2186,-0.2187,-0.2242,-0.2243,-0.2244,-0.2245,-0.2311,-0.2313,-0.2315,-0.2307,0,0,-0.2321,-0.2321,0,0,0,0,0,0,0,0,-0.2018,-0.2028,-0.2136,-0.214,-0.2146,-0.2207,-0.2159,-0.2227,-0.2242,-0.2204,-0.2244,-0.2245,-0.2276,-0.2281,-0.2291,-0.2311,-0.2313,-0.2321,-0.2322,-0.2323,-0.2323,0,0,0,0,0,0,0,-0.2014,-0.2024,-0.2131,-0.2137,-0.2143,-0.2146,-0.2157,-0.2172,-0.2231,-0.2207,-0.2212,-0.2225,-0.2279,-0.2289,-0.2293,-0.2314,-0.2321,-0.2322,-0.2323,-0.2324,-0.2432,-0.2434,0,0,0,0,0,0,-0.201,-0.202,-0.2129,-0.2134,-0.2086,-0.2148,-0.216,-0.2184,-0.2232,-0.2241,-0.2224,-0.2228,-0.2286,-0.2291,-0.2296,-0.2385,-0.2323,-0.2324,-0.2325,-0.2431,-0.2433,-0.2435,0,0,0,0,0,0,-0.2007,-0.2019,-0.2126,-0.208,-0.2094,-0.215,-0.2176,-0.2185,-0.2236,-0.2246,-0.2254,-0.2271,-0.2287,-0.2293,-0.2348,-0.2385,-0.2325,-0.2327,-0.2429,-0.2431,-0.2434,-0.2503,0,0,0,0,0,0,-0.2002,-0.2018,-0.2049,-0.208,-0.2097,-0.2173,-0.2176,-0.2186,-0.2242,-0.2248,-0.2288,-0.2293,-0.2288,-0.2346,-0.235,-0.2386,-0.2328,-0.2426,-0.243,-0.2433,-0.2498,-0.2507,-0.2515,0,0,0,0,0,-0.1997,-0.2031,-0.205,-0.2065,-0.2134,-0.2174,-0.2184,-0.2223,-0.2244,-0.2272,-0.2304,-0.2294,-0.237,-0.2349,-0.2353,-0.2391,-0.2425,-0.2429,-0.2433,-0.2494,-0.2505,-0.2515,0,0,0,0,0,0,-0.1987,-0.2041,-0.2063,-0.2115,-0.2154,-0.2186,-0.2221,-0.2246,-0.2294,-0.2312,-0.2318,-0.2325,-0.2385,-0.2381,-0.2357,-0.2432,-0.2395,-0.24,-0.244,-0.245,-0.2459,-0.2444,-0.233,0,0,0,0,0,-0.1998,-0.204,-0.2085,-0.213,-0.2154,-0.2195,-0.2224,-0.2253,-0.229,-0.2315,-0.2343,-0.2372,-0.2398,-0.2421,-0.2439,-0.2482,-0.2454,-0.2509,-0.2518,-0.2525,-0.2517,-0.2515,-0.2522,-0.2448,-0.2448,-0.2448,0,0,-0.2008,-0.2044,-0.207,-0.2131,-0.2167,-0.2206,-0.2216,-0.2273,-0.2313,-0.2313,-0.2387,-0.2407,-0.2417,-0.2466,-0.2492,-0.2473,-0.2532,-0.253,-0.2536,-0.2524,-0.252,-0.2527,-0.2533,-0.2451,-0.245,-0.245,0,0,-0.2028,-0.2082,-0.2116,-0.2154,-0.2217,-0.2242,-0.2268,-0.2323,-0.2362,-0.2426,-0.2436,-0.248,-0.2527,-0.2538,-0.2547,-0.2614,-0.2577,-0.2629,-0.2662,-0.2661,-0.2667,-0.2671,-0.264,-0.2641,-0.2633,-0.2634,-0.2634,0,-0.2041,-0.2089,-0.2132,-0.2172,-0.2211,-0.2262,-0.2304,-0.2347,-0.2416,-0.2447,-0.2462,-0.2538,-0.2555,-0.2598,-0.2625,-0.2633,-0.2615,-0.2622,-0.2671,-0.2674,-0.2678,-0.2645,-0.2645,-0.2637,-0.2637,-0.2637,-0.2636,0,-0.2068,-0.2125,-0.2151,-0.2218,-0.2264,-0.2314,-0.2373,-0.243,-0.2483,-0.2517,-0.2591,-0.2616,-0.2654,-0.2675,-0.2672,-0.2712,-0.2685,-0.2681,-0.264,-0.2689,-0.2652,-0.2651,-0.2643,-0.2641,-0.264,-0.2639,0,0,-0.2042,-0.215,-0.2161,-0.2204,-0.2297,-0.2332,-0.2411,-0.2482,-0.253,-0.2601,-0.2653,-0.2711,-0.2727,-0.2737,-0.2747,-0.2752,-0.2766,-0.2732,-0.273,-0.2692,-0.2744,-0.257,-0.2552,-0.2773,-0.2773,-0.2773,-0.2706,0,-0.2051,-0.2126,-0.2182,-0.2264,-0.2308,-0.2387,-0.2449,-0.2523,-0.2587,-0.2649,-0.2691,-0.2743,-0.275,-0.2775,-0.2786,-0.2773,-0.2767,-0.2782,-0.2709,-0.2706,-0.2538,-0.2546,-0.2775,-0.2705,-0.2705,-0.2705,-0.2704,0,-0.2043,-0.2101,-0.218,-0.2288,-0.2316,-0.2376,-0.2482,-0.2545,-0.2638,-0.2687,-0.2747,-0.2776,-0.2814,-0.2807,-0.2802,-0.2813,-0.2782,-0.2763,-0.276,-0.2567,-0.253,-0.2647,-0.2702,-0.2702,-0.2702,-0.2702,-0.2703,0,-0.1976,-0.2093,-0.2159,-0.2199,-0.2327,-0.2386,-0.2457,-0.256,-0.2608,-0.2711,-0.2743,-0.28,-0.2821,-0.2812,-0.2785,-0.2799,-0.2748,-0.276,-0.2568,-0.2556,-0.2703,-0.2699,-0.2737,-0.2737,-0.2737,-0.2737,-0.2738,0,-0.194,-0.1995,-0.2142,-0.2177,-0.2252,-0.2361,-0.2441,-0.2519,-0.2618,-0.2649,-0.2754,-0.276,-0.2824,-0.2807,-0.2782,-0.2652,-0.2744,-0.2554,-0.2522,-0.2734,-0.2734,-0.2701,-0.2698,-0.2735,-0.2735,-0.2736,-0.2736,0,-0.1844,-0.1946,-0.2025,-0.2174,-0.2223,-0.2277,-0.2416,-0.2455,-0.2573,-0.2615,-0.2645,-0.273,-0.2701,-0.2721,-0.2691,-0.2613,-0.2534,-0.2465,-0.2667,-0.2651,-0.2344,-0.2346,-0.224,-0.2233,-0.2227,-0.2223,-0.2219,0,-0.1796,-0.1832,-0.1994,-0.2035,-0.2109,-0.221,-0.2262,-0.241,-0.2441,-0.2558,-0.2544,-0.2579,-0.2607,-0.2407,-0.2471,-0.2389,-0.2368,-0.2314,-0.2346,-0.2311,-0.2292,-0.2302,-0.2312,-0.221,-0.2208,-0.2207,-0.2205,0,-0.1692,-0.1769,-0.1833,-0.1917,-0.1991,-0.2053,-0.2144,-0.2145,-0.2284,-0.2418,-0.2358,-0.2334,-0.2292,-0.2267,-0.2213,-0.2168,-0.2347,-0.2254,-0.2266,-0.2296,-0.2273,-0.2262,-0.2278,-0.2185,-0.2188,-0.219,-0.2191,0,-0.1608,-0.1623,-0.1713,-0.1765,-0.1849,-0.1853,-0.193,-0.1951,-0.1999,-0.2139,-0.2109,-0.2155,-0.2247,-0.2148,-0.2104,-0.2039,-0.202,-0.1963,-0.199,-0.2013,-0.1974,-0.1913,-0.1665,0,0,0,0,0,-0.1511,-0.1508,-0.1547,-0.1594,-0.1667,-0.1707,-0.1821,-0.19,-0.2039,-0.1929,-0.2012,-0.1963,-0.1902,-0.194,-0.1823,-0.2014,-0.2035,-0.1873,-0.1987,-0.2075,-0.2098,-0.2075,0,0,0,0,0,0,-0.1444,-0.148,-0.1488,-0.1428,-0.1422,-0.1476,-0.1535,-0.1637,-0.1591,-0.1741,-0.1709,-0.1835,-0.1799,-0.1917,-0.1774,-0.1786,-0.1815,-0.1925,-0.1919,-0.2061,-0.2082,-0.2101,-0.2086,0,0,0,0,0]},{"header":{"parameterUnit":"m.s-1","parameterCategory":2,"la1":30.2991,"la2":30.254,"lo1":-89.0895,"lo2":-89.0444,"dy":0.0017,"dx":0.0017,"nx":28,"ny":28,"refTime":"2025-12-21T09:00:00:Z","depth":"4","parameterNumber":3,"parameterNumberName":"V-component_of_CURRENTS"},"data":[0,0,0,0,0,0,0,0,0,0,0,0,0,0,0,0,0,0,0,0,0,0,0,0,0,0,0,0,0,0,0,0,0,0,0,0,0,0,0,0,0,0,0,0,0,0,0,0,0,0,0,0,0,0,0,0,0,0,-0.0256,-0.0255,0,-0.0177,-0.0175,-0.0174,-0.0125,-0.0125,-0.0125,-0.0125,-0.0001,0.0002,0.0005,0,0,0,0,0,0,0,0,0,0,0,0,0,-0.0311,-0.0311,-0.0256,-0.0255,-0.0254,-0.0177,-0.0175,-0.0174,-0.0125,-0.0125,-0.0125,-0.0125,-0.0002,0.0001,0.0005,0,0,0,0,0,0,0,0,0,0,0,0,0,-0.0264,-0.031,-0.0256,-0.0221,-0.0218,-0.0177,-0.0175,-0.0174,-0.0125,-0.0125,-0.0125,-0.0124,-0.0004,0.0001,0.0006,0.0031,0,0,0.002,0.0022,0,0,0,0,0,0,0,0,-0.0266,-0.0261,-0.0227,-0.0224,-0.0219,-0.0162,-0.015,-0.0104,-0.0125,-0.0158,-0.0125,-0.0124,-0.0052,-0.0043,-0.0027,0.0037,0.0042,0.0021,0.0023,0.0026,0.0027,0,0,0,0,0,0,0,-0.027,-0.0264,-0.0223,-0.0226,-0.0222,-0.0192,-0.0185,-0.0141,-0.0105,-0.0155,-0.0152,-0.0146,-0.0049,-0.0032,-0.0024,0.0044,0.002,0.0025,0.0028,0.0029,0.0141,0.0141,0,0,0,0,0,0,-0.0286,-0.0268,-0.0225,-0.022,-0.0245,-0.0191,-0.0184,-0.0179,-0.0106,-0.0096,-0.0146,-0.0144,-0.004,-0.0029,-0.0019,0.0012,0.0025,0.003,0.0033,0.0141,0.0141,0.0141,0,0,0,0,0,0,-0.0287,-0.0283,-0.0228,-0.0243,-0.0235,-0.0191,-0.0186,-0.0178,-0.0162,-0.01,-0.0089,-0.014,-0.004,-0.0026,0.0018,0.0017,0.0032,0.0036,0.0141,0.0141,0.0141,0.0077,0,0,0,0,0,0,-0.0289,-0.0284,-0.0289,-0.0245,-0.0234,-0.0211,-0.0186,-0.0176,-0.0159,-0.0156,-0.0091,-0.0079,-0.0038,0.001,0.0023,0.0024,0.004,0.014,0.0141,0.0141,0.0079,0.0075,0.0071,0,0,0,0,0,-0.0292,-0.0298,-0.029,-0.0285,-0.0242,-0.0212,-0.0204,-0.0171,-0.016,-0.0156,-0.0111,-0.0081,0.002,0.0014,0.0029,0.0031,0.014,0.0141,0.0141,0.008,0.0075,0.0071,0,0,0,0,0,0,-0.0324,-0.0293,-0.0283,-0.028,-0.0253,-0.0204,-0.0199,-0.0177,-0.0138,-0.0135,-0.0077,-0.0062,-0.0025,0.0013,0.0005,0.0064,0.0084,0.0087,0.0033,0.0029,0.0026,0.0007,0.0044,0,0,0,0,0,-0.0336,-0.0335,-0.0297,-0.0297,-0.0286,-0.0245,-0.023,-0.0208,-0.0168,-0.0151,-0.0106,-0.0056,-0.0013,0.0015,0.0057,0.0093,0.0131,0.0104,0.01,0.0096,0.0091,0.0145,0.0145,0.0142,0.0142,0.0142,0,0,-0.035,-0.0333,-0.0333,-0.0304,-0.0281,-0.0271,-0.0235,-0.0218,-0.0207,-0.0143,-0.0115,-0.0069,-0.0007,0.003,0.005,0.0062,0.0118,0.0097,0.0093,0.009,0.0145,0.0146,0.0146,0.0142,0.0142,0.0142,0,0,-0.0376,-0.0362,-0.0368,-0.035,-0.0322,-0.0295,-0.0294,-0.025,-0.0228,-0.0195,-0.0148,-0.0103,-0.0037,0.0009,0.0041,0.0044,0.0093,0.0056,0.0028,0.008,0.008,0.0081,0.013,0.0135,0.0058,0.0058,0.0058,0,-0.0395,-0.0397,-0.0365,-0.0364,-0.0358,-0.0311,-0.0316,-0.0285,-0.0232,-0.0216,-0.0197,-0.0098,-0.0047,0.0006,0.0007,0.0035,0.0069,0.0037,0.0074,0.0075,0.0078,0.0127,0.0134,0.0055,0.0055,0.0056,0.0056,0,-0.0418,-0.0424,-0.0426,-0.0413,-0.04,-0.0397,-0.0355,-0.0336,-0.0307,-0.0272,-0.022,-0.0145,-0.0087,-0.0062,-0.0025,0.0016,0.0037,0.0058,0.008,0.0074,0.0127,0.0135,0.0051,0.0052,0.0053,0.0053,0,0,-0.0452,-0.0446,-0.0449,-0.0461,-0.0429,-0.0424,-0.0406,-0.0376,-0.0369,-0.0307,-0.0284,-0.02,-0.016,-0.0121,-0.0063,-0.0013,0.0035,0.0022,0.0026,0.0061,0.0146,0.0125,0.0133,0.0059,0.006,0.0061,0.0177,0,-0.0483,-0.0508,-0.0489,-0.0515,-0.0525,-0.0486,-0.0477,-0.0443,-0.0401,-0.0366,-0.028,-0.0236,-0.0181,-0.0154,-0.0095,0.0,0.0054,0.0001,0.0155,0.016,0.0135,0.0141,0.0064,0.0184,0.0186,0.0187,0.0188,0,-0.051,-0.0527,-0.0562,-0.0578,-0.0579,-0.0584,-0.057,-0.0554,-0.0487,-0.0452,-0.0385,-0.0316,-0.0227,-0.0184,-0.0024,-0.0062,0.0032,0.0109,0.0116,0.0123,0.0154,0.0195,0.0205,0.0203,0.0202,0.0201,0.02,0,-0.0555,-0.0579,-0.0617,-0.062,-0.0623,-0.0634,-0.0632,-0.0585,-0.0576,-0.0505,-0.0484,-0.0368,-0.0305,-0.0179,-0.0017,-0.0021,0.0159,0.0178,0.0252,0.0253,0.0265,0.0263,0.0289,0.0288,0.0288,0.0288,0.0287,0,-0.0591,-0.0624,-0.0648,-0.067,-0.0719,-0.0696,-0.0725,-0.0698,-0.0657,-0.0644,-0.0537,-0.0487,-0.0302,-0.0173,-0.0033,0.0134,0.0153,0.0247,0.028,0.0236,0.0229,0.0271,0.0268,0.0292,0.0291,0.029,0.029,0,-0.0628,-0.0642,-0.0696,-0.0727,-0.0744,-0.0779,-0.08,-0.081,-0.0762,-0.0737,-0.0717,-0.0569,-0.04,-0.021,0.0011,0.0109,0.0271,0.0329,0.0267,0.0295,0.0335,0.0327,0.0415,0.0415,0.0415,0.0415,0.0416,0,-0.0645,-0.0677,-0.075,-0.0794,-0.0815,-0.0863,-0.0893,-0.0868,-0.0865,-0.0781,-0.0763,-0.0604,-0.0486,-0.0181,0.0005,0.0265,0.0302,0.0377,0.0355,0.0324,0.0348,0.0339,0.0331,0.0416,0.0416,0.0416,0.0416,0,-0.0681,-0.0713,-0.0758,-0.0854,-0.091,-0.0962,-0.0991,-0.0996,-0.0949,-0.0913,-0.0779,-0.0613,-0.042,-0.0183,0.0021,0.0206,0.0317,0.0379,0.038,0.036,0.0326,0.0348,0.034,0.0417,0.0416,0.0416,0.0416,0,-0.0706,-0.0753,-0.0821,-0.0898,-0.0977,-0.1024,-0.1041,-0.1011,-0.0992,-0.0882,-0.084,-0.0619,-0.0482,-0.0213,-0.0028,0.015,0.019,0.0234,0.0243,0.0245,0.0153,0.0083,0.0126,0,0,0,0,0,-0.0724,-0.0777,-0.0858,-0.094,-0.1018,-0.1054,-0.1086,-0.1081,-0.1038,-0.0948,-0.0885,-0.0696,-0.0402,-0.0269,-0.0093,-0.0046,0.0199,0.0161,0.0248,0.042,0.0419,0.0338,0,0,0,0,0,0,-0.0738,-0.0817,-0.0856,-0.095,-0.1009,-0.1079,-0.11,-0.1074,-0.1005,-0.0938,-0.0771,-0.0672,-0.0379,-0.0494,-0.0092,-0.0039,0.0033,0.0307,0.031,0.042,0.042,0.0419,0.0335,0,0,0,0,0]}]]